Location: Newark
(51.8833°N, 3.4333°W)
Time: 20:38:47
(UTC+00:00)

N. Korean satellite - Visible Passes

Search period start: 18 September 2020 00:00
Search period end: 28 September 2020 00:00
Orbit: 455 x 503 km, 97.2° (Epoch: 17 September)

Date Brightness Start Highest point End Pass type
(mag) Time Alt. Az. Time Alt. Az. Time Alt. Az.
18 Sep 9.1 05:14:49 10° NE 05:18:02 27° E 05:21:14 10° SSE visible
19 Sep 9.9 04:49:33 10° NE 04:51:49 15° E 04:54:04 10° SE visible
22 Sep 9.6 05:04:23 10° NE 05:07:17 22° E 05:10:09 10° SE visible
23 Sep 10.1 04:39:33 10° ENE 04:41:01 12° E 04:42:28 10° ESE visible
25 Sep 8.9 05:19:25 10° NNE 05:22:42 30° E 05:25:56 10° SSE visible
26 Sep 9.8 04:54:02 10° NE 04:56:29 17° E 04:58:54 10° SE visible
